BEIDOU-3 M6 (C22)

Last updated on Jan. 19, 2020, 4:38 a.m. UTC

1 43208U 18018B   20018.08404071  .00000013  00000-0  00000-0 0  9994
2 43208  55.1267 141.4344 0006197 300.3159  59.5947  1.86231820 13127
UTC
Height (km)
Latitude
Longitude
Inclination
Orbital Period
UTC large
Height (km)
Speed (km/s)
/
Latitude / Longitude
Inclination (degrees)
Orbital Period (minutes)
Azimuth
Elevation
Range (km)
Doppler Factor
iOS Compass Heading
iOS Angle

Next 30 passes for location: Hong Kong

Rise time Rise Azimuth (degrees) Set time Set Azimuth (degrees) Duration Max altitude (degrees)

No matching passes for this satellites